< < Back
Terminal Aerodrome Forecast


Current Version              Previous Versions:   1  2  3  4  5  6  7  8  9  

Terminal Aerodrome Forecast

803
FTUS42 KGSP 201700
TAFGSP
TAF
KGSP 201740Z 2018/2118 06010KT P6SM FEW070 SCT250
     FM210300 03003KT P6SM SCT250
     FM211000 30003KT P6SM FEW250
     FM211400 27007KT P6SM FEW070 SCT250=



Latest METAR

748
SAUS70 KWBC 211200 RRL
MTRGSP
METAR KGSP 211153Z 22003KT 10SM CLR 16/14 A2999 RMK AO2 SLP148 T01560144
10167 20144 53003


USA.gov is the U.S. government's official web portal to all federal, state and local government web resources and services.